Location: Cactus School
(34.5700°N, 118.0931°W)
Time: 16:14:14
(UTC-07:00)

Vanguard 1 - Visible Passes

Search period start: 16 April 2024 00:00
Search period end: 26 April 2024 00:00
Orbit: 653 x 3825 km, 34.2° (Epoch: 15 April)

Date Brightness Start Highest point End Pass type
(mag) Time Alt. Az. Time Alt. Az. Time Alt. Az.
16 Apr 13.4 03:20:18 23° S 03:30:27 32° SE 03:44:23 10° E visible
16 Apr 12.5 05:34:28 10° SW 05:55:10 63° SSE 06:07:08 10° E visible
17 Apr 13.9 01:26:42 13° SE 01:26:42 13° SE 01:34:23 10° ESE visible
17 Apr 13.1 03:39:20 25° SSW 03:51:03 40° SSE 04:05:35 10° E visible
17 Apr 12.4 05:55:01 10° WSW 06:15:48 71° SSE 06:27:31 10° E visible
18 Apr 13.7 01:45:40 20° SE 01:46:45 20° SE 01:59:24 10° E visible
18 Apr 12.9 03:58:18 26° SSW 04:11:39 49° SSE 04:26:26 10° E visible
19 Apr 13.5 02:04:33 26° SSE 02:07:13 27° SE 02:22:08 10° E visible
19 Apr 12.8 04:17:10 25° SW 04:32:18 57° SSE 04:47:04 10° E visible
20 Apr 13.3 02:23:20 32° SSE 02:27:40 34° SE 02:43:54 10° E visible
20 Apr 12.7 04:35:56 22° SW 04:52:58 66° SSE 05:07:35 10° ENE visible
21 Apr 14.0 00:29:25 12° ESE 00:29:25 12° ESE 00:32:47 10° ESE visible
21 Apr 13.1 02:42:01 37° S 02:48:08 43° SE 03:05:09 10° E visible
21 Apr 12.6 04:54:37 18° WSW 05:13:40 74° SSE 05:28:00 10° E visible
22 Apr 13.8 00:48:01 19° ESE 00:48:01 19° ESE 00:57:47 10° E visible
22 Apr 13.0 03:00:37 40° S 03:08:39 51° SSE 03:26:04 10° E visible
22 Apr 12.5 05:13:13 13° WSW 05:34:26 80° SSE 05:48:24 10° E visible
23 Apr 13.5 01:06:33 27° SE 01:06:33 27° SE 01:20:37 10° E visible
23 Apr 12.8 03:19:08 40° SSW 03:29:15 60° SSE 03:46:46 10° ENE visible
23 Apr 12.5 05:32:29 10° WSW 05:55:14 85° S 06:08:46 10° E visible
24 Apr 13.3 01:25:00 35° SE 01:25:00 35° SE 01:42:30 10° E visible
24 Apr 12.8 03:37:34 36° SW 03:49:55 68° SSE 04:07:22 10° ENE visible
25 Apr 13.1 01:43:21 43° SSE 01:44:41 44° SE 02:03:50 10° E visible
25 Apr 12.7 03:55:56 31° SW 04:10:40 75° SSE 04:27:53 10° ENE visible
